[[{"header":{"parameterUnit":"m.s-1","parameterCategory":1,"la1":30.2991,"la2":30.254,"lo1":-89.0895,"lo2":-89.0444,"dy":0.0017,"dx":0.0017,"nx":28,"ny":28,"refTime":"2026-03-04T03:00:00:Z","depth":0,"parameterNumber":2,"parameterNumberName":"U-component_of_WINDS"},"data":[0,0,0,0,0,0,0,0,0,0,0,0,0,0,0,0,0,0,0,0,0,0,0,0,0,0,0,0,0,0,0,0,0,0,0,0,0,0,0,0,0,0,0,0,0,0,0,0,0,0,0,0,0,0,0,0,0,0,-3.9604,-3.9604,0,-3.9675,-3.9676,-3.9677,-3.9618,-3.9615,-3.9613,-3.961,-3.9685,-3.9689,-3.9693,0,0,0,0,0,0,0,0,0,0,0,0,0,-3.9419,-3.9422,-3.9603,-3.9604,-3.9605,-3.9675,-3.9676,-3.9677,-3.9618,-3.9615,-3.9612,-3.9609,-3.9683,-3.9688,-3.9693,0,0,0,0,0,0,0,0,0,0,0,0,0,-3.9496,-3.9424,-3.9603,-3.9584,-3.9583,-3.9675,-3.9676,-3.9677,-3.9619,-3.9615,-3.9611,-3.9608,-3.9682,-3.9688,-3.9694,-3.9809,0,0,-3.9714,-3.9717,0,0,0,0,0,0,0,0,-3.9491,-3.9502,-3.9586,-3.9586,-3.9585,-3.9634,-3.9638,-3.9721,-3.962,-3.9605,-3.961,-3.9606,-3.9671,-3.9678,-3.9699,-3.9812,-3.9815,-3.9714,-3.9718,-3.9721,-3.9723,0,0,0,0,0,0,0,-3.9486,-3.9499,-3.9632,-3.9587,-3.9587,-3.9573,-3.958,-3.9654,-3.9658,-3.9606,-3.9602,-3.9611,-3.967,-3.9693,-3.9701,-3.9816,-3.9714,-3.972,-3.9724,-3.9726,-4.0029,-4.0033,0,0,0,0,0,0,-3.9482,-3.9495,-3.963,-3.9634,-3.9528,-3.9579,-3.9587,-3.9622,-3.9657,-3.9659,-3.9614,-3.9608,-3.9684,-3.9693,-3.9703,-3.984,-3.9721,-3.9727,-3.9731,-4.0025,-4.003,-4.0035,0,0,0,0,0,0,-3.9479,-3.9495,-3.9627,-3.9563,-3.9579,-3.9587,-3.9626,-3.9625,-3.9649,-3.9663,-3.9664,-3.9638,-3.9682,-3.9694,-3.9783,-3.9842,-3.973,-3.9736,-4.002,-4.0027,-4.0032,-4.0115,0,0,0,0,0,0,-3.9473,-3.9494,-3.9536,-3.9565,-3.9583,-3.9705,-3.963,-3.9629,-3.966,-3.9652,-3.9685,-3.9687,-3.968,-3.9774,-3.979,-3.9849,-3.9741,-4.0015,-4.0023,-4.003,-4.0107,-4.0124,-4.0138,0,0,0,0,0,-3.9467,-3.9557,-3.9539,-3.9555,-3.9636,-3.9708,-3.9719,-3.9708,-3.9665,-3.9708,-3.9718,-3.9686,-3.9834,-3.9784,-3.9801,-3.9863,-4.0011,-4.0021,-4.003,-4.01,-4.012,-4.0137,0,0,0,0,0,0,-3.9534,-3.956,-3.954,-3.9642,-3.9673,-3.9698,-3.9752,-3.9729,-3.9773,-3.9765,-3.975,-3.9758,-3.9852,-3.9867,-3.9811,-3.9977,-3.9916,-3.9929,-3.9963,-3.9982,-3.9997,-3.9991,-3.9746,0,0,0,0,0,-3.9561,-3.9617,-3.9637,-3.9724,-3.9741,-3.9745,-3.9775,-3.9765,-3.9797,-3.981,-3.9826,-3.9859,-3.9913,-3.9949,-3.9999,-4.011,-4.0117,-4.0162,-4.0177,-4.0189,-4.02,-4.0261,-4.0282,-4.0066,-4.0065,-4.0065,0,0,-3.9616,-3.9637,-3.9673,-3.9738,-3.9761,-3.9821,-3.9756,-3.982,-3.9865,-3.982,-3.9905,-3.9919,-3.9955,-4.0056,-4.0101,-4.0071,-4.0262,-4.0201,-4.0211,-4.0215,-4.0273,-4.0294,-4.0312,-4.0072,-4.0071,-4.007,0,0,-3.9747,-3.9769,-3.9844,-3.987,-3.9906,-3.9908,-3.9927,-3.9956,-3.9964,-4.0049,-4.0018,-4.0071,-4.0163,-4.0191,-4.0217,-4.0363,-4.0336,-4.038,-4.0458,-4.0518,-4.0535,-4.055,-4.0603,-4.0622,-4.0392,-4.0392,-4.0392,0,-3.9811,-3.9898,-3.9886,-3.9954,-3.9984,-3.9948,-4.0025,-4.0051,-4.0102,-4.0124,-4.009,-4.0207,-4.0229,-4.0337,-4.0373,-4.0395,-4.0417,-4.0375,-4.0534,-4.0549,-4.0563,-4.0612,-4.0632,-4.0397,-4.0396,-4.0396,-4.0395,0,-3.9976,-4.0037,-4.0094,-4.0145,-4.0182,-4.0254,-4.0255,-4.0294,-4.0282,-4.0288,-4.0377,-4.0402,-4.0458,-4.0483,-4.0471,-4.059,-4.057,-4.0536,-4.0473,-4.0589,-4.0635,-4.0654,-4.0404,-4.0403,-4.0401,-4.04,0,0,-4.0147,-4.0193,-4.0214,-4.0238,-4.0277,-4.0325,-4.0397,-4.0452,-4.0486,-4.0524,-4.0584,-4.0666,-4.0635,-4.0665,-4.0656,-4.0709,-4.0824,-4.0668,-4.0668,-4.0695,-4.0958,-4.0983,-4.1005,-4.0807,-4.0811,-4.0813,-4.0954,0,-4.0279,-4.0403,-4.0397,-4.0514,-4.0571,-4.054,-4.0603,-4.0635,-4.0644,-4.0695,-4.0705,-4.0763,-4.0717,-4.0735,-4.0786,-4.0799,-4.0876,-4.0789,-4.0863,-4.0866,-4.0854,-4.1029,-4.1055,-4.1186,-4.0973,-4.0976,-4.0978,0,-4.0449,-4.0493,-4.0616,-4.065,-4.0673,-4.073,-4.0781,-4.083,-4.0867,-4.087,-4.0905,-4.0889,-4.0964,-4.0902,-4.1005,-4.0946,-4.0977,-4.0988,-4.0993,-4.0998,-4.0928,-4.1038,-4.1228,-4.1247,-4.1006,-4.1004,-4.1002,0,-4.0561,-4.0652,-4.0738,-4.0759,-4.08,-4.0841,-4.086,-4.0893,-4.0927,-4.0973,-4.0995,-4.1049,-4.1078,-4.1121,-4.112,-4.1075,-4.1225,-4.1163,-4.123,-4.1231,-4.1261,-4.1259,-4.1458,-4.1284,-4.1284,-4.1283,-4.1283,0,-4.0709,-4.0785,-4.0789,-4.0842,-4.0927,-4.0921,-4.1006,-4.1021,-4.1051,-4.1107,-4.1084,-4.1137,-4.1134,-4.1189,-4.1189,-4.1275,-4.1289,-4.1294,-4.1293,-4.1295,-4.1294,-4.1313,-4.1304,-4.1288,-4.1287,-4.1286,-4.1285,0,-4.0847,-4.0853,-4.0944,-4.0977,-4.0987,-4.1049,-4.1077,-4.1128,-4.1136,-4.1208,-4.1224,-4.1238,-4.1301,-4.1305,-4.1378,-4.1379,-4.1483,-4.1473,-4.1471,-4.1468,-4.1535,-4.1529,-4.1752,-4.1782,-4.1589,-4.1591,-4.1593,0,-4.094,-4.0998,-4.1038,-4.1073,-4.1095,-4.1153,-4.1189,-4.1186,-4.1224,-4.1272,-4.1317,-4.1379,-4.1427,-4.153,-4.1547,-4.1604,-4.1594,-4.1669,-4.1602,-4.1603,-4.1594,-4.159,-4.1596,-4.1681,-4.1683,-4.1684,-4.1686,0,-4.1104,-4.1105,-4.1156,-4.121,-4.1253,-4.1295,-4.1335,-4.1366,-4.1368,-4.1412,-4.1477,-4.1515,-4.1591,-4.1652,-4.1708,-4.1729,-4.1709,-4.1707,-4.1726,-4.1728,-4.1724,-4.1727,-4.1505,-4.1701,-4.17,-4.1699,-4.1698,-4.1697,-4.1221,-4.1272,-4.1309,-4.1368,-4.1398,-4.1436,-4.1486,-4.1502,-4.1555,-4.1616,-4.1612,-4.1684,-4.1723,-4.1796,-4.1821,-4.1879,-4.1853,-4.188,-4.1887,-4.1893,-4.19,-4.1717,-4.1889,-4.1888,-4.1888,-4.1888,-4.1887,0,-4.1384,-4.1406,-4.1461,-4.1517,-4.1565,-4.1543,-4.1586,-4.1627,-4.1691,-4.1728,-4.1777,-4.1853,-4.1913,-4.1937,-4.1996,-4.2038,-4.203,-4.2053,-4.2049,-4.2055,-4.1919,-4.1897,-4.2059,-4.2059,-4.2059,-4.2059,-4.2058,-4.2058,-4.1473,-4.1559,-4.1565,-4.1666,-4.1688,-4.1758,-4.1785,-4.1821,-4.1851,-4.1936,-4.1987,-4.2002,-4.2034,-4.2097,-4.2152,-4.2157,-4.218,-4.2208,-4.2209,-4.2081,-4.2064,-4.2047,-4.2026,-4.2213,-4.2213,-4.234,-4.2341,-4.2342]},{"header":{"parameterUnit":"m.s-1","parameterCategory":1,"la1":30.2991,"la2":30.254,"lo1":-89.0895,"lo2":-89.0444,"dy":0.0017,"dx":0.0017,"nx":28,"ny":28,"refTime":"2026-03-04T03:00:00:Z","depth":0,"parameterNumber":3,"parameterNumberName":"V-component_of_WINDS"},"data":[0,0,0,0,0,0,0,0,0,0,0,0,0,0,0,0,0,0,0,0,0,0,0,0,0,0,0,0,0,0,0,0,0,0,0,0,0,0,0,0,0,0,0,0,0,0,0,0,0,0,0,0,0,0,0,0,0,0,0.5605,0.5606,0,0.5704,0.5705,0.5706,0.5752,0.5752,0.5752,0.5752,0.5855,0.5857,0.586,0,0,0,0,0,0,0,0,0,0,0,0,0,0.5461,0.5463,0.5605,0.5606,0.5607,0.5703,0.5705,0.5706,0.5752,0.5752,0.5752,0.5752,0.5854,0.5857,0.586,0,0,0,0,0,0,0,0,0,0,0,0,0,0.5538,0.5464,0.5605,0.5642,0.5646,0.5703,0.5705,0.5706,0.5752,0.5752,0.5752,0.5752,0.5853,0.5857,0.5861,0.5888,0,0,0.5874,0.5875,0,0,0,0,0,0,0,0,0.5534,0.5543,0.5635,0.5639,0.5644,0.5715,0.5692,0.5768,0.5752,0.5712,0.5752,0.5752,0.5808,0.5816,0.5835,0.5893,0.5898,0.5874,0.5876,0.5878,0.5879,0,0,0,0,0,0,0,0.5528,0.5539,0.5644,0.5636,0.5642,0.5655,0.5666,0.5706,0.576,0.5715,0.5719,0.573,0.5811,0.5831,0.5838,0.5899,0.5874,0.5877,0.588,0.5882,0.599,0.5991,0,0,0,0,0,0,0.5516,0.5534,0.5641,0.5647,0.5588,0.5658,0.567,0.5693,0.5759,0.5769,0.573,0.5732,0.5824,0.5833,0.5842,0.5881,0.5878,0.5882,0.5885,0.599,0.599,0.5991,0,0,0,0,0,0,0.5513,0.5525,0.5637,0.5592,0.5607,0.566,0.5686,0.5695,0.5715,0.577,0.578,0.574,0.5824,0.5836,0.5877,0.5885,0.5884,0.5888,0.5989,0.599,0.5991,0.5959,0,0,0,0,0,0,0.5509,0.5524,0.5533,0.5592,0.5609,0.5669,0.5686,0.5697,0.5722,0.5725,0.5783,0.5792,0.5825,0.5871,0.5882,0.5891,0.5891,0.5989,0.599,0.599,0.5959,0.5958,0.5957,0,0,0,0,0,0.5503,0.552,0.5534,0.5546,0.5622,0.567,0.568,0.5717,0.5722,0.5733,0.577,0.579,0.5883,0.5875,0.5887,0.5898,0.5989,0.5989,0.599,0.596,0.5958,0.5957,0,0,0,0,0,0,0.5461,0.5528,0.5544,0.558,0.5619,0.5677,0.5692,0.5714,0.5752,0.5754,0.5799,0.5811,0.585,0.5878,0.5868,0.5931,0.5938,0.5941,0.5911,0.591,0.5909,0.5901,0.5895,0,0,0,0,0,0.5456,0.5488,0.5545,0.5571,0.559,0.5638,0.566,0.5685,0.5728,0.5745,0.5784,0.5825,0.5864,0.5888,0.5927,0.5964,0.5979,0.5978,0.5977,0.5976,0.5978,0.6004,0.6005,0.5993,0.5993,0.5993,0,0,0.5445,0.5486,0.5503,0.5564,0.5597,0.5631,0.5651,0.5685,0.5712,0.575,0.5792,0.5823,0.5872,0.5913,0.5933,0.5938,0.5985,0.5977,0.5976,0.5979,0.6005,0.6006,0.6007,0.5994,0.5994,0.5994,0,0,0.5443,0.5476,0.5503,0.5537,0.5588,0.562,0.5627,0.5683,0.5705,0.5749,0.5779,0.5812,0.5877,0.5912,0.5938,0.5955,0.5976,0.5966,0.596,0.5985,0.5986,0.5987,0.5995,0.5997,0.5968,0.5968,0.5968,0,0.5424,0.5475,0.5515,0.5548,0.5575,0.5613,0.5642,0.5673,0.5733,0.5752,0.5757,0.5842,0.5878,0.5929,0.5933,0.5952,0.5964,0.5959,0.5982,0.5984,0.5985,0.5994,0.5996,0.5967,0.5967,0.5967,0.5967,0,0.545,0.5485,0.5501,0.556,0.5589,0.562,0.5667,0.5692,0.5716,0.5749,0.5795,0.5839,0.5889,0.5903,0.5926,0.5959,0.5961,0.5973,0.5981,0.5984,0.5993,0.5996,0.5965,0.5965,0.5966,0.5966,0,0,0.5421,0.5504,0.551,0.5538,0.5599,0.5628,0.5662,0.5712,0.5734,0.5775,0.5807,0.5863,0.5877,0.5906,0.5935,0.5956,0.597,0.5967,0.5969,0.5967,0.6012,0.6003,0.6005,0.5985,0.5985,0.5986,0.6008,0,0.5429,0.5491,0.553,0.5578,0.5613,0.5651,0.5682,0.5724,0.5756,0.5792,0.5829,0.5869,0.5882,0.5901,0.5924,0.5963,0.598,0.5962,0.6016,0.6018,0.6003,0.601,0.5999,0.6018,0.6012,0.6012,0.6013,0,0.5445,0.5488,0.5539,0.5599,0.5615,0.5642,0.5692,0.5726,0.5775,0.5798,0.5833,0.5862,0.5903,0.5909,0.5967,0.5954,0.5979,0.6003,0.6004,0.6011,0.6015,0.6018,0.6024,0.6027,0.6018,0.6018,0.6017,0,0.5422,0.5491,0.5532,0.5555,0.5626,0.5644,0.5675,0.5725,0.5753,0.5798,0.5817,0.5866,0.5893,0.5931,0.5974,0.5973,0.6029,0.6037,0.6051,0.605,0.606,0.6059,0.6072,0.6075,0.6075,0.6075,0.6075,0,0.5427,0.5457,0.5523,0.5548,0.5584,0.563,0.5666,0.5699,0.5744,0.5778,0.5814,0.5846,0.59,0.5939,0.5973,0.6018,0.6029,0.605,0.6059,0.6048,0.6045,0.6065,0.6065,0.6076,0.6075,0.6075,0.6075,0,0.5406,0.5451,0.5498,0.5563,0.558,0.5604,0.566,0.5687,0.5723,0.5766,0.5779,0.5836,0.5884,0.5931,0.5995,0.6018,0.6063,0.6074,0.6046,0.6051,0.6063,0.6062,0.609,0.6097,0.6093,0.6093,0.6093,0,0.5406,0.5431,0.5499,0.5524,0.5554,0.5594,0.5625,0.5672,0.5702,0.5763,0.5784,0.5835,0.5878,0.5954,0.6002,0.6052,0.6065,0.6072,0.6073,0.6062,0.6068,0.6066,0.607,0.6071,0.607,0.607,0.607,0,0.5403,0.5425,0.5466,0.5517,0.5552,0.5593,0.5637,0.5656,0.5713,0.5745,0.5795,0.5829,0.5896,0.5947,0.6004,0.6038,0.6065,0.607,0.6076,0.6064,0.6048,0.6059,0.6045,0.6068,0.6069,0.6069,0.6069,0.6069,0.5394,0.5419,0.5471,0.5517,0.5556,0.5596,0.5626,0.5667,0.5709,0.5768,0.5794,0.5845,0.5899,0.5978,0.6012,0.6054,0.606,0.6068,0.6071,0.6072,0.6071,0.6041,0.6064,0.6064,0.6064,0.6065,0.6065,0,0.5393,0.543,0.5472,0.5533,0.557,0.5592,0.5643,0.5673,0.5717,0.5765,0.5807,0.5867,0.5918,0.5971,0.6026,0.605,0.6064,0.6063,0.6062,0.607,0.6061,0.6051,0.6051,0.6051,0.6051,0.6051,0.6051,0.6051,0.5398,0.5442,0.5471,0.5537,0.5574,0.5624,0.5652,0.5691,0.5729,0.5794,0.5837,0.5871,0.5923,0.5982,0.6031,0.6046,0.6065,0.6061,0.6079,0.6069,0.607,0.6071,0.6062,0.6064,0.6064,0.6085,0.6085,0.6085]}]]